TimeEDT,TemperatureF,Dew PointF,Humidity,Sea Level PressureIn,VisibilityMPH,Wind Direction,Wind SpeedMPH,Gust SpeedMPH,PrecipitationIn,Events,Conditions,WindDirDegrees,DateUTC
12:53 AM,39.9,25.0,55,30.03,10.0,South,5.8,-,N/A,,Overcast,190,2013-04-05 04:53:00
1:53 AM,39.0,28.9,67,30.01,10.0,South,3.5,-,N/A,,Overcast,180,2013-04-05 05:53:00
2:53 AM,37.9,30.9,76,29.98,10.0,South,4.6,-,N/A,,Mostly Cloudy,180,2013-04-05 06:53:00
3:53 AM,37.0,30.9,79,29.96,10.0,Calm,Calm,-,N/A,,Mostly Cloudy,0,2013-04-05 07:53:00
4:53 AM,36.0,30.9,82,29.96,10.0,South,3.5,-,N/A,,Partly Cloudy,170,2013-04-05 08:53:00
5:53 AM,36.0,30.9,82,29.96,10.0,Calm,Calm,-,N/A,,Clear,0,2013-04-05 09:53:00
6:53 AM,33.1,30.0,89,29.97,10.0,Calm,Calm,-,N/A,,Clear,0,2013-04-05 10:53:00
7:53 AM,36.0,32.0,86,29.96,9.0,Calm,Calm,-,N/A,,Clear,0,2013-04-05 11:53:00
8:53 AM,39.9,33.1,77,29.95,9.0,Calm,Calm,-,N/A,,Clear,0,2013-04-05 12:53:00
9:53 AM,45.0,32.0,60,29.93,10.0,Calm,Calm,-,N/A,,Clear,0,2013-04-05 13:53:00
10:53 AM,55.0,21.0,27,29.94,10.0,NW,10.4,17.3,N/A,,Clear,320,2013-04-05 14:53:00
11:53 AM,57.0,19.0,23,29.93,10.0,WNW,6.9,-,N/A,,Unknown,300,2013-04-05 15:53:00
12:53 PM,60.1,18.0,20,29.89,10.0,NW,11.5,31.1,N/A,,Clear,320,2013-04-05 16:53:00
1:53 PM,62.1,19.9,20,29.86,10.0,WNW,13.8,20.7,N/A,,Clear,300,2013-04-05 17:53:00
2:53 PM,63.0,24.1,23,29.84,10.0,WNW,16.1,24.2,N/A,,Clear,290,2013-04-05 18:53:00
3:53 PM,64.0,24.1,22,29.84,10.0,NNW,19.6,25.3,N/A,,Clear,340,2013-04-05 19:53:00
4:19 PM,62.6,21.2,20,29.85,10.0,WNW,20.7,34.5,N/A,,Clear,300,2013-04-05 20:19:00
4:53 PM,63.0,24.1,23,29.86,10.0,WNW,23.0,27.6,N/A,,Clear,290,2013-04-05 20:53:00
5:53 PM,60.1,21.9,23,29.90,10.0,NW,13.8,25.3,N/A,,Clear,320,2013-04-05 21:53:00
6:53 PM,57.9,19.9,23,29.93,10.0,WNW,13.8,21.9,N/A,,Clear,300,2013-04-05 22:53:00
7:53 PM,55.0,18.0,23,29.96,10.0,NW,9.2,19.6,N/A,,Clear,320,2013-04-05 23:53:00
8:53 PM,53.1,15.1,22,30.01,10.0,NW,11.5,20.7,N/A,,Clear,320,2013-04-06 00:53:00
9:53 PM,50.0,18.0,28,30.04,10.0,NNW,11.5,-,N/A,,Clear,340,2013-04-06 01:53:00
10:53 PM,48.0,17.1,29,30.06,10.0,NNW,12.7,21.9,N/A,,Clear,330,2013-04-06 02:53:00
11:53 PM,45.0,15.1,30,30.08,10.0,NNW,13.8,-,N/A,,Clear,330,2013-04-06 03:53:00